Weather History for Tallahassee, FL

Change the Weather History Date:

Wednesday, February 13, 2013

  Actual Average Record
Temperature  
Mean Temperature 64 °F 54 °F  
Max Temperature 77 °F 67 °F 84 °F (1962)
Min Temperature 51 °F 42 °F -2 °F (1899)
Degree Days  
Heating Degree Days 1    
Month to date heating degree days 90  
Since 1 July heating degree days 808  
Cooling Degree Days 0    
Month to date cooling degree days 8  
Year to date cooling degree days 42  
Growing Degree Days 14 (Base 50)    
Moisture  
Dew Point 58 °F    
Average Humidity 64    
Maximum Humidity 87    
Minimum Humidity 40    
Precipitation  
Precipitation 0.04 in 0.16 in 2.80 in (1935)
Month to date precipitation 0.61 2.06  
Year to date precipitation 1.46 6.40  
Sea Level Pressure  
Sea Level Pressure 29.87 in    
Wind  
Wind Speed 9 mph (West)    
Max Wind Speed 20 mph    
Max Gust Speed 24 mph    
Visibility 10 miles    
Events Rain    
T = Trace of Precipitation, MM = Missing Value Source: NWS Daily Summary

Daily Weather History Graph

Daily Weather History Graph

Search for Another Location

Airport:

Trip Planner

Search our weather history database for the weather conditions in past years. The results will help you decide how hot, cold, wet, or windy it might be!

Date:

Astronomy

Feb. 13, 2013 Rise Set
Actual Time 7:19 AM EST 6:24 PM EST
Civil Twilight 6:54 AM EST 6:48 PM EST
Nautical Twilight 6:26 AM EST 7:17 PM EST
Astronomical Twilight 5:58 AM EST 7:45 PM EST
Moon 9:07 AM EST (2/13) 10:04 PM EST (2/13)
Length of Visible Light 11h 54m
Length of Day
11h 05m
Waxing Crescent, 13% of the Moon is Illuminated
Feb 13
Waxing Crescent
Feb 17
First Quarter
Feb 25
Full
Mar 4
Last Quarter
Mar 11
New

Hourly Weather History & Observations

Time (EST) Temp. Dew Point Humidity Pressure Visibility Wind Dir Wind Speed Gust Speed Precip Events Conditions
12:53 AM 73.0 °F 69.1 °F 87% 29.83 in 10.0 mi SW 11.5 mph - N/A   Overcast
1:48 AM 73.4 °F 68.0 °F 83% 29.82 in 10.0 mi SW 16.1 mph 21.9 mph 0.01 in   Mostly Cloudy
1:53 AM 73.0 °F 68.0 °F 84% 29.82 in 10.0 mi SW 15.0 mph 21.9 mph 0.01 in   Mostly Cloudy
2:53 AM 73.0 °F 68.0 °F 84% 29.81 in 10.0 mi SW 12.7 mph - N/A   Overcast
3:53 AM 72.0 °F 69.1 °F 91% 29.81 in 10.0 mi SW 8.1 mph - 0.02 in Rain Light Rain
4:53 AM 73.0 °F 68.0 °F 84% 29.79 in 10.0 mi SW 9.2 mph - 0.00 in   Overcast
5:53 AM 73.0 °F 68.0 °F 84% 29.80 in 10.0 mi SW 9.2 mph - 0.00 in   Overcast
6:35 AM 73.4 °F 68.0 °F 83% 29.82 in 10.0 mi WSW 15.0 mph 20.7 mph N/A   Overcast
6:48 AM 73.4 °F 68.0 °F 83% 29.82 in 10.0 mi WSW 12.7 mph - N/A   Overcast
6:53 AM 73.0 °F 66.9 °F 81% 29.82 in 10.0 mi WSW 13.8 mph 19.6 mph N/A   Overcast
7:53 AM 72.0 °F 66.0 °F 81% 29.85 in 9.0 mi WSW 8.1 mph - N/A   Partly Cloudy
8:08 AM 71.6 °F 66.2 °F 83% 29.85 in 9.0 mi WSW 9.2 mph - N/A   Mostly Cloudy
8:41 AM 71.6 °F 66.2 °F 83% 29.86 in 8.0 mi West 5.8 mph - N/A   Mostly Cloudy
8:51 AM 71.6 °F 66.2 °F 83% 29.86 in 8.0 mi West 5.8 mph - N/A   Mostly Cloudy
8:53 AM 72.0 °F 66.9 °F 84% 29.87 in 8.0 mi West 6.9 mph - N/A   Mostly Cloudy
9:53 AM 73.0 °F 64.9 °F 76% 29.89 in 10.0 mi West 10.4 mph - N/A   Mostly Cloudy
10:53 AM 73.9 °F 62.1 °F 66% 29.88 in 10.0 mi West 8.1 mph - N/A   Scattered Clouds
11:53 AM 75.0 °F 60.1 °F 60% 29.88 in 10.0 mi West 11.5 mph - N/A   Scattered Clouds
12:53 PM 73.0 °F 53.1 °F 49% 29.85 in 10.0 mi WSW 6.9 mph - N/A   Overcast
1:53 PM 73.0 °F 48.9 °F 42% 29.86 in 10.0 mi West 8.1 mph - N/A   Overcast
2:53 PM 70.0 °F 48.0 °F 46% 29.86 in 10.0 mi West 9.2 mph - N/A   Overcast
3:53 PM 69.1 °F 45.0 °F 42% 29.87 in 10.0 mi WNW 8.1 mph - N/A   Overcast
4:53 PM 66.9 °F 41.0 °F 39% 29.89 in 10.0 mi West 11.5 mph - N/A   Overcast
5:53 PM 66.0 °F 44.1 °F 45% 29.90 in 10.0 mi Calm Calm - N/A   Overcast
6:53 PM 64.9 °F 46.0 °F 50% 29.92 in 10.0 mi WNW 8.1 mph - N/A   Overcast
7:53 PM 62.1 °F 46.0 °F 56% 29.93 in 10.0 mi NW 6.9 mph - N/A   Overcast
8:53 PM 57.0 °F 48.0 °F 72% 29.97 in 10.0 mi NW 12.7 mph 23.0 mph N/A   Overcast
9:32 PM 53.6 °F 44.6 °F 72% 29.98 in 10.0 mi NNW 18.4 mph 24.2 mph N/A   Overcast
9:53 PM 52.0 °F 45.0 °F 77% 29.99 in 10.0 mi NNW 9.2 mph - 0.00 in Rain Light Rain
10:53 PM 51.1 °F 44.1 °F 77% 29.99 in 10.0 mi North 5.8 mph - 0.00 in   Overcast
11:53 PM 51.1 °F 45.0 °F 80% 30.01 in 10.0 mi Calm Calm - 0.01 in Rain Light Rain